Regional Weather Roundup
Issued by NWS

Home | Current Version | Previous Version | Text Only | Print | Product List | Glossary On
Versions: 1 2 3 4 5 6 7 8 9 10 11 12 13 14 15 16 17 18 19 20 21 22 23 24 25 26 27 28 29 30 31 32 33 34 35 36 37 38 39 40 41 42 43 44 45 46 47 48 49 50
769
ASUS43 KDTX 210001
RWRMI
MICHIGAN HOURLY REGIONAL WEATHER ROUNDUP
NATIONAL WEATHER SERVICE DETROIT/PONTIAC MI
700 PM EST MON NOV 20 2017

NOTE: "FAIR" INDICATES FEW OR NO CLOUDS BELOW 12,000 FEET WITH NO
SIGNIFICANT WEATHER AND/OR OBSTRUCTION TO VISIBILITY.

MIZ047>049-052>055-059>063-066>070-074>076-081>083-210100-
SOUTHEAST LOWER MICHIGAN

CITY           SKY/WX    TMP DP  RH WIND       PRES   REMARKS
ADRIAN         CLOUDY    41  29  62 SW17      29.89S
6HR MIN TEMP:  41; 6HR MAX TEMP:  46;

ALMA           CLOUDY    42  31  67 S12G18    29.73S
ANN ARBOR      CLOUDY    40  30  67 S12       29.86R WCI  33
BAD AXE        CLOUDY    39  30  68 S12       29.75S WCI  32
6HR MIN TEMP:  34; 6HR MAX TEMP:  46;

CARO           CLEAR     43  30  60 S13       29.75S
DETROIT CITY   CLEAR    N/A N/A N/A SW18G26   29.87S
DETROIT        PTCLDY    42  30  62 S17       29.88S
6HR MIN TEMP:  42; 6HR MAX TEMP:  48;

FLINT          CLEAR     43  29  57 S14       29.79S
6HR MIN TEMP:  43; 6HR MAX TEMP:  50;

GROSSE ILE     CLEAR     42  33  70 S17       29.88S
6HR MIN TEMP:  42; 6HR MAX TEMP:  46;

HILLSDALE      CLEAR     41  28  60 S9G23     29.85S
HOWELL         CLOUDY    44  29  57 S12G21    29.80S
6HR MIN TEMP:  44; 6HR MAX TEMP:  49;


CITY           SKY/WX    TMP DP  RH WIND       PRES   REMARKS
JACKSON        CLOUDY    45  27  49 S17G32    29.83S
6HR MIN TEMP:  44; 6HR MAX TEMP:  50;

LAMBERTVILLE   CLEAR     44  30  57 S14G22    29.90S
6HR MIN TEMP:  44; 6HR MAX TEMP:  49;

LANSING        CLEAR     46  30  53 SW18G32   29.78S
6HR MIN TEMP:  45; 6HR MAX TEMP:  49;

LAPEER         FAIR      43  29  58 S16G22    29.79F
6HR MIN TEMP:  42; 6HR MAX TEMP:  48;

MASON          CLEAR     46  29  53 S7G18     29.80S
MONROE         CLEAR     44  28  54 S16       29.88S
6HR MIN TEMP:  44; 6HR MAX TEMP:  49;

MT. CLEMENS    PTCLDY    43  30  60 S16       29.84S
6HR MIN TEMP:  42; 6HR MAX TEMP:  49;

PONTIAC        MOCLDY    42  30  62 S13G23    29.82S
6HR MIN TEMP:  42; 6HR MAX TEMP:  47;

PORT HOPE        N/A     40  29  64 S6        29.73F
6HR MIN TEMP:  34; 6HR MAX TEMP:  44;

PORT HURON     CLEAR     43  30  61 S15G25    29.84S
TRI CITIES     CLOUDY    44  31  60 S16       29.73F
6HR MIN TEMP:  42; 6HR MAX TEMP:  47;

MIDLAND        FAIR      42  31  64 S8        29.72S
6HR MIN TEMP:  42; 6HR MAX TEMP:  46;

TROY           CLEAR     46  28  49 S13G20    29.87R
SAGINAW HB     CLOUDY    41  32  70 S13       29.73F
$$
MIZ043>046-050>051-056>058-064>065-071>073-077>080-210100-
SOUTHWEST LOWER MICHIGAN

CITY           SKY/WX    TMP DP  RH WIND       PRES   REMARKS
BATTLE CREEK   CLEAR     45  29  53 S21       29.80F
6HR MIN TEMP:  45; 6HR MAX TEMP:  49;

BENTON HARBOR  CLEAR     48  30  49 S20       29.77F
6HR MIN TEMP:  48; 6HR MAX TEMP:  52;

BIG RAPIDS     CLOUDY    42  29  60 S8        29.67F
6HR MIN TEMP:  42; 6HR MAX TEMP:  46;

COLDWATER      CLEAR     43  27  52 S10       29.84F
6HR MIN TEMP:  43; 6HR MAX TEMP:  50;

FREMONT        FAIR      46  36  69 S16G26    29.68F
HOLLAND        CLEAR     47  32  56 S18       29.73F
6HR MIN TEMP:  46; 6HR MAX TEMP:  49;

GRAND RAPIDS   CLOUDY    47  32  56 S18G25    29.73F
6HR MIN TEMP:  45; 6HR MAX TEMP:  48;

IONIA          FAIR      44  30  58 S16G22    29.73F
6HR MIN TEMP:  44; 6HR MAX TEMP:  49;

KALAMAZOO      CLEAR     45  28  51 S20G29    29.80F
6HR MIN TEMP:  45; 6HR MAX TEMP:  51;

LUDINGTON      CLOUDY    47  36  65 S23G31    29.62F
6HR MIN TEMP:  44; 6HR MAX TEMP:  47;

MARSHALL       CLEAR     44  28  53 S9G16     29.81F
6HR MIN TEMP:  44; 6HR MAX TEMP:  49;

MOUNT PLEASANT CLOUDY    41  29  62 S3        29.70F
6HR MIN TEMP:  41; 6HR MAX TEMP:  47;

MUSKEGON       MOCLDY    50  37  61 S22G33    29.69F
6HR MIN TEMP:  47; 6HR MAX TEMP:  50;

SOUTH HAVEN    CLEAR     49  31  49 S23G35    29.75F
$$
MIZ016>042-210100-
NORTHERN LOWER MICHIGAN

CITY           SKY/WX    TMP DP  RH WIND       PRES   REMARKS
ALPENA         CLOUDY    38  32  79 S10       29.66F WCI  31
6HR MIN TEMP:  36; 6HR MAX TEMP:  45;

BEAVER ISLAND  PTCLDY    43  36  76 S7        29.56F
6HR MIN TEMP:  41; 6HR MAX TEMP:  44;

BELLAIRE       PTCLDY    42  36  78 S8        29.61S
6HR MIN TEMP:  40; 6HR MAX TEMP:  44;

CADILLAC       CLOUDY    39  33  78 S12G18    29.63F WCI  32
CHARLEVOIX     PTCLDY    43  34  70 S8G16     29.61S
6HR MIN TEMP:  41; 6HR MAX TEMP:  45;

FRANKFORT      CLOUDY    46  34  64 S14G22    29.59F
GAYLORD        CLEAR     38  31  76 S15       29.59F WCI  29
6HR MIN TEMP:  36; 6HR MAX TEMP:  40;

GRAYLING       CLOUDY    40  31  70 S9        29.64F WCI  34
6HR MIN TEMP:  38; 6HR MAX TEMP:  42;

HARBOR SPRINGS PTCLDY    40  32  73 CALM      29.59F
MANISTEE       CLOUDY    44  35  70 S9        29.61F
OSCODA         MOCLDY    40  29  66 S10       29.69F WCI  33
6HR MIN TEMP:  38; 6HR MAX TEMP:  44;

PELLSTON       CLEAR     29  27  92 CALM      29.59F
6HR MIN TEMP:  29; 6HR MAX TEMP:  42;

ROGERS CITY    CLOUDY    38  32  79 S7        29.63F WCI  33
TRAVERSE CITY  MOCLDY    44  33  65 SW8G24    29.59F
6HR MIN TEMP:  43; 6HR MAX TEMP:  47;

$$
MIZ007>008-015-210100-
EASTERN UPPER MICHIGAN

CITY           SKY/WX    TMP DP  RH WIND       PRES   REMARKS
KINROSS        MOCLDY    35  32  88 SE13      29.58F WCI  26
6HR MIN TEMP:  34; 6HR MAX TEMP:  36;

MACKINAC ISLAN CLEAR     39  32  75 SE7       29.59F WCI  34
6HR MIN TEMP:  37; 6HR MAX TEMP:  40;

NEWBERRY       CLOUDY    36  35  97 SE12      29.54F WCI  28
6HR MIN TEMP:  35; 6HR MAX TEMP:  38;

S. S. MARIE    CLOUDY    36  31  82 E9        29.58F WCI  29
6HR MIN TEMP:  34; 6HR MAX TEMP:  37;

MUNISING         N/A     40  37  89 S12G25    29.44F WCI  33
6HR MIN TEMP:  35; 6HR MAX TEMP:  40;

$$
MIZ004>006-011>014-085-210100-
CENTRAL UPPER MICHIGAN

CITY           SKY/WX    TMP DP  RH WIND       PRES   REMARKS
MANISTIQUE     CLOUDY    43  38  80 S18G26    29.52F
6HR MIN TEMP:  39; 6HR MAX TEMP:  43;

ESCANABA       PTCLDY    43  36  76 S13       29.49F
6HR MIN TEMP:  39; 6HR MAX TEMP:  43;

MENOMINEE      PTCLDY    41  33  73 S6        29.52S
6HR MIN TEMP:  39; 6HR MAX TEMP:  44;

SAWYER-GWINN   CLEAR     34  30  86 S14       29.45F WCI  24
$$
MIZ001>003-009>011-084-210100-
WESTERN UPPER MICHIGAN

CITY           SKY/WX    TMP DP  RH WIND       PRES   REMARKS
IRON MOUNTAIN  PTCLDY    37  28  70 S8        29.44F WCI  31
6HR MIN TEMP:  35; 6HR MAX TEMP:  41;

HOUGHTON       CLOUDY    34  26  72 S8        29.33F WCI  27
6HR MIN TEMP:  29; 6HR MAX TEMP:  34;

COPPER HARBOR    N/A     39  30  70 SW12G23   29.32F WCI  32
6HR MIN TEMP:  36; 6HR MAX TEMP:  39;

IRONWOOD       PTCLDY    42  29  59 SW17G28   29.31F
6HR MIN TEMP:  36; 6HR MAX TEMP:  42;

$$

ABBREVIATIONS USED IN REMARKS
   TC - TEMPERATURE IN CELSIUS
  WCI - WIND CHILL INDEX
   HX - HEAT INDEX
  VSB - VISIBILITY





USA.gov is the U.S. government's official web portal to all federal, state and local government web resources and services.